Regional Weather Roundup
Issued by NWS Upton, NY

Current Version | Previous Version | Graphics & Text | Print | Product List | Glossary Off
Versions: 1 2 3 4 5 6 7 8 9 10 11 12 13 14 15 16 17 18 19 20 21 22 23 24 25 26 27 28 29 30 31 32 33 34 35 36 37 38 39 40 41 42 43 44 45 46 47 48 49 50

000
ASUS41 KOKX 310305
RWROKX

REGIONAL WEATHER ROUNDUP
NATIONAL WEATHER SERVICE NEW YORK NY
1100 PM EDT WED JUL 30 2014

NOTE: "FAIR" INDICATES FEW OR NO CLOUDS BELOW 12,000 FEET WITH NO
SIGNIFICANT WEATHER AND/OR OBSTRUCTIONS TO VISIBILITY.

NYZ071-072-176-178-NJZ106-104-310400-
NEW YORK CITY METRO AREA


CITY           SKY/WX    TMP DP  RH WIND       PRES   REMARKS
CENTRAL PARK   CLEAR     72  56  57 VRB6      30.07S
LAGUARDIA APRT PTCLDY    73  57  57 SW9       30.04S
KENNEDY INTL   PTCLDY    72  61  68 S13       30.05F
NEWARK/LIBERTY PTCLDY    71  60  68 S6        30.04S
BRNX BOT. GARD   N/A     70  57  64 NE1       30.06R
TETERBORO      CLEAR     72  57  59 S3        30.03S
$$

NYZ177-179-078>081-310400-
LONG ISLAND NEW YORK

CITY           SKY/WX    TMP DP  RH WIND       PRES   REMARKS
FARMINGDALE    CLEAR     70  60  70 SW6       30.05F
ISLIP          CLEAR     71  59  65 S6        30.04S
SHIRLEY        CLEAR     67  59  75 S5        30.07R
WESTHAMPTON    CLEAR     57  52  83 CALM      30.08S
MONTAUK POINT    N/A     69  60  73 SW3       30.08R
$$

NYZ052-065-067-310400-
HUDSON VALLEY

CITY           SKY/WX    TMP DP  RH WIND       PRES   REMARKS
WHITE PLAINS   CLEAR     64  58  80 CALM      30.05S
NEWBURGH       CLEAR     66  57  72 CALM      30.05S
MONTGOMERY     CLEAR     60  57  89 CALM      30.04S
POUGHKEEPSIE   CLEAR     63  58  83 CALM      30.03S
ALBANY         MOCLDY    68  56  65 S7        30.02R
$$

NJZ001-105-106-008-010-013-015-019>022-104-310400-
NEW JERSEY

CITY           SKY/WX    TMP DP  RH WIND       PRES   REMARKS
NEWARK/LIBERTY PTCLDY    71  60  68 S6        30.04S
TETERBORO      CLEAR     72  57  59 S3        30.03S
CALDWELL       CLEAR     66  55  67 CALM      30.05S
MORRISTOWN     CLEAR     61  55  82 CALM      30.05S
SOMERVILLE     CLEAR     60  57  89 CALM      30.04R
LINDEN         FAIR      72  59  64 CALM      30.07R
SUSSEX         CLEAR     61  57  87 CALM      30.05S
ANDOVER          N/A     59  57  93 CALM      30.06S
TRENTON        CLEAR     67  55  65 CALM      30.05S
MILLVILLE      CLEAR     63  58  83 CALM      30.07S
ATLANTIC CITY  CLEAR     66  57  72 SW7       30.07S
WRIGHTSTOWN    CLEAR     64  57  78 VRB2      30.04S
TOMS RIVER     CLEAR     61  55  82 CALM      30.07S
BELMAR         CLEAR     70  55  60 SW6       30.06S
$$

PAZ047>061-062-071-310400-
EASTERN PENNSYLVANIA

CITY           SKY/WX    TMP DP  RH WIND       PRES   REMARKS
PHILADELPHIA   CLEAR     73  54  51 SW9       30.06S
ALLENTOWN      PTCLDY    63  55  75 CALM      30.05F
SCRANTON       LGT RAIN  64  58  80 SW5       30.06S
$$

CTZ002-004>006-009-010-012-RIZ004-006-007-MAZ004-011-015-310400-
SOUTHERN NEW ENGLAND
 IN CT

CITY           SKY/WX    TMP DP  RH WIND       PRES   REMARKS
BRADLEY INTL   PTCLDY    65  54  67 S5        30.03S
HARTFORD       CLEAR     66  54  65 S5        30.04R
DANBURY        CLEAR     63  55  75 N3        30.06S
WTRBRY/OXFORD  CLEAR     63  54  72 CALM      30.08S
BRIDGEPORT     CLEAR     72  61  68 SW9       30.05S
MERIDEN        CLEAR     61  55  81 CALM      30.05S
NEW HAVEN      CLEAR     73  60  63 S7        30.05S
CHESTER        FAIR      66  57  72 SW5       30.07S
GROTON         CLEAR     66  61  84 SW5       30.06R
WILLIMANTIC    CLEAR     61  57  87 NE3       30.06S

 IN RI

CITY           SKY/WX    TMP DP  RH WIND       PRES   REMARKS
PROVIDENCE     PTCLDY    65  57  75 CALM      30.06S
BLOCK ISLAND   CLEAR     66  57  72 SW8       30.07R
WESTERLY       CLEAR     65  58  78 CALM      30.07R

 IN MA

CITY           SKY/WX    TMP DP  RH WIND       PRES   REMARKS
BOSTON         PTCLDY    70  55  59 SW10      30.04S
WORCESTER      CLEAR     60  54  80 SW6       30.07S
WESTFIELD      CLEAR     60  56  86 S3        30.04R
PROVINCETOWN   CLEAR     64  57  77 SW8       30.06R
NANTUCKET      CLEAR     66  63  90 S7        30.07S
$$

ANZ330-335-338-340-345-350-353-355-310400-
COASTAL MARINE OBSERVATIONS


STATION/POSITION TIME  SKY/WX   TEMP    WIND        PRES    VSBY  WAVE
                                AIR SEA DIR/SP/G                  HT/PER
                 (UTC)          (F)     (DEG/KT/KT) (MB)    (MI)  (FT/S)
NY HARB ENTRANCE NOT AVBL
4S FIRE IS       NOT AVBL
23SW MTP         0200            70 71              1017.6          3/ 8
HUDSON CANYON    0300            72 75  230/  6/  8 1018.3          3/ 8
EXECUTION ROCKS  0300            71 70  200/ 10/ 12   N/A
WESTERN LI SOUND 0300            71     180/  8/ 10   N/A           0
CENTRAL LI SOUND 0200            72 73  220/ 14/ 16   N/A           1/ 2
EASTERN LI SOUND 0200            70 68  210/ 10/ 12   N/A
ROBBINS REEF     0300            72     200/ 12/ 13   N/A
$$


>>>>>>>>>>>>>>>>>>>>>>>>>>>> KEY <<<<<<<<<<<<<<<<<<<<<<<<<<<
>                                                          <
>     SKY/WX - SKY CONDITION/PRESENT WEATHER               <
>     TMP    - TEMPERATURE IN FAHRENHEIT                   <
>     DP     - DEWPOINT IN FAHRENHEIT                      <
>     RH     - RELATIVE HUMIDITY IN PERCENT                <
>     WIND   - DIRECTION AND SPEED IN MPH                  <
>     PRES   - MEAN SEA LEVEL PRESSURE IN INCHES OF HG     <
>     WCI    - WIND CHILL INDEX                            <
>     VSB    - VISIBILITY IN MILES                         <
>     HX     - HEAT INDEX                                  <
>     TC     - TEMPERATURE IN CELSIUS                      <
>     VRB    - VARIABLE WIND DIRECTION                     <
>                                                          <
>>>>>>>>>>>>>>>>>>>>>>>>>>>> KEY <<<<<<<<<<<<<<<<<<<<<<<<<<<





USA.gov is the U.S. government's official web portal to all federal, state and local government web resources and services.